SCP
1 0 0 0 0 0 0 0 0 0 0 0 0 0 0 0 0 0 0 0 0 0
1 1 0 0 0 0 0 0 0 0 0 0 0 0 0 0 0 0 0 0 0 0
1 1 1 1 1 1 1 1 1 1 1 0 0 0 0 0 0 0 0 0 0 0
0 1 2 2 2 2 2 1 1 1 1 0 0 1 0 0 0 0 0 0 0 0
1 1 2 3 3 3 2 2 2 1 1 1 0 0 1 0 0 0 0 0 0 0
3 2 2 3 4 3 3 4 3 2 2 1 1 1 1 1 0 0 0 0 0 0
0 0 4 4 4 3 3 4 4 3 3 2 2 2 1 1 0 0 0 0 0 0
0 0 1 3 3 3 3 4 4 4 3 2 2 2 1 0 0 0 0 0 0 0
0 0 0 1 3 3 3 3 3 3 3 1 0 0 0 0 0 0 0 0 0 0
0 0 0 1 1 2 2 2 2 3 2 1 0 0 0 0 0 0 0 0 0 0
0 0 0 1 1 1 1 1 2 1 2 1 0 0 0 0 0 0 0 0 0 0
0 0 0 1 1 0 1 1 1 1 1 0 0 0 0 0 0 0 0 0 0 0
0 0 0 0 0 0 1 1 1 1 1 0 0 0 0 0 0 0 0 0 0 0
0 0 0 0 1 1 0 0 0 0 0 0 0 0 0 0 0 0 0 0 0 0
Wind_Speed_500mb
103 106 100 93 85 75 70 60 58 60 62 61 56 61 62 65 66 65 59 55 52 48
102 111 106 96 87 79 70 62 60 56 57 60 60 60 59 61 65 70 67 56 56 48
98 106 110 101 92 82 70 64 58 53 53 55 59 63 66 66 66 66 67 62 53 46
86 93 97 101 97 85 75 65 64 56 49 50 56 65 72 71 72 63 64 67 57 49
74 77 91 94 92 84 80 76 70 62 55 51 55 59 72 76 75 71 66 63 55 50
59 67 67 76 84 84 79 68 67 65 57 52 47 52 63 69 73 71 62 62 58 55
34 56 61 58 57 60 62 59 63 61 52 49 48 56 57 58 69 65 66 55 46 46
17 19 44 57 60 61 59 56 53 51 51 51 50 58 58 51 59 67 62 58 71 51
12 14 14 19 57 62 62 60 53 51 53 59 50 51 49 59 75 74 67 55 67 72
11 14 8 10 32 61 68 63 59 62 59 58 49 46 56 61 77 77 74 76 100 82
19 17 12 4 10 56 65 66 70 67 64 59 51 44 59 72 66 77 69 82 89 81
18 23 21 14 6 28 55 60 61 63 64 59 46 47 63 94 73 70 73 72 80 65
22 27 37 36 27 15 32 50 57 59 56 50 46 55 81 85 80 68 66 69 67 54
26 36 36 41 40 38 34 33 39 50 57 56 52 57 89 84 75 64 64 70 73 67
Wind_Direction_500mb
223 223 223 225 227 224 220 219 222 225 227 229 227 225 226 232 235 236 236 237 241 251
222 225 226 228 230 232 230 226 223 225 231 234 234 231 229 231 235 236 235 238 241 246
228 227 228 230 232 231 235 237 232 227 232 239 239 239 234 235 237 237 235 236 238 241
234 231 228 231 233 236 238 243 242 236 238 241 242 242 240 238 239 238 232 231 235 240
233 233 232 233 235 237 239 248 248 246 248 251 248 249 246 241 243 237 230 226 227 227
228 232 232 233 235 237 239 244 247 251 257 260 258 258 254 248 245 242 234 226 221 220
209 219 230 232 235 235 237 236 243 250 256 256 254 256 257 251 241 237 229 216 222 230
127 196 224 229 225 231 237 238 243 239 241 246 249 251 253 250 246 233 202 209 207 221
140 134 111 233 234 230 230 233 229 227 232 235 244 252 246 236 221 200 173 179 208 209
198 154 132 27 228 224 224 225 228 225 224 229 235 244 248 228 207 201 208 224 205 193
233 203 202 162 264 222 221 222 226 218 218 224 230 237 214 198 187 196 211 212 211 209
219 220 213 194 223 223 217 216 218 220 222 220 223 219 210 202 212 212 213 204 198 213
223 206 210 207 215 218 224 218 217 215 223 232 216 205 204 208 201 209 200 198 192 200
228 218 216 221 214 218 219 212 216 215 215 222 215 211 195 200 203 215 209 196 198 203
Wind_Speed_850mb
103 106 100 93 85 75 70 60 58 60 62 61 56 61 62 65 66 65 59 55 52 48
102 111 106 96 87 79 70 62 60 56 57 60 60 60 59 61 65 70 67 56 56 48
98 106 110 101 92 82 70 64 58 53 53 55 59 63 66 66 66 66 67 62 53 46
86 93 97 101 97 85 75 65 64 56 49 50 56 65 72 71 72 63 64 67 57 49
74 77 91 94 92 84 80 76 70 62 55 51 55 59 72 76 75 71 66 63 55 50
59 67 67 76 84 84 79 68 67 65 57 52 47 52 63 69 73 71 62 62 58 55
34 56 61 58 57 60 62 59 63 61 52 49 48 56 57 58 69 65 66 55 46 46
17 19 44 57 60 61 59 56 53 51 51 51 50 58 58 51 59 67 62 58 71 51
12 14 14 19 57 62 62 60 53 51 53 59 50 51 49 59 75 74 67 55 67 72
11 14 8 10 32 61 68 63 59 62 59 58 49 46 56 61 77 77 74 76 100 82
19 17 12 4 10 56 65 66 70 67 64 59 51 44 59 72 66 77 69 82 89 81
18 23 21 14 6 28 55 60 61 63 64 59 46 47 63 94 73 70 73 72 80 65
22 27 37 36 27 15 32 50 57 59 56 50 46 55 81 85 80 68 66 69 67 54
26 36 36 41 40 38 34 33 39 50 57 56 52 57 89 84 75 64 64 70 73 67
Wind_Direction_850mb
223 223 223 225 227 224 220 219 222 225 227 229 227 225 226 232 235 236 236 237 241 251
222 225 226 228 230 232 230 226 223 225 231 234 234 231 229 231 235 236 235 238 241 246
228 227 228 230 232 231 235 237 232 227 232 239 239 239 234 235 237 237 235 236 238 241
234 231 228 231 233 236 238 243 242 236 238 241 242 242 240 238 239 238 232 231 235 240
233 233 232 233 235 237 239 248 248 246 248 251 248 249 246 241 243 237 230 226 227 227
228 232 232 233 235 237 239 244 247 251 257 260 258 258 254 248 245 242 234 226 221 220
209 219 230 232 235 235 237 236 243 250 256 256 254 256 257 251 241 237 229 216 222 230
127 196 224 229 225 231 237 238 243 239 241 246 249 251 253 250 246 233 202 209 207 221
140 134 111 233 234 230 230 233 229 227 232 235 244 252 246 236 221 200 173 179 208 209
198 154 132 27 228 224 224 225 228 225 224 229 235 244 248 228 207 201 208 224 205 193
233 203 202 162 264 222 221 222 226 218 218 224 230 237 214 198 187 196 211 212 211 209
219 220 213 194 223 223 217 216 218 220 222 220 223 219 210 202 212 212 213 204 198 213
223 206 210 207 215 218 224 218 217 215 223 232 216 205 204 208 201 209 200 198 192 200
228 218 216 221 214 218 219 212 216 215 215 222 215 211 195 200 203 215 209 196 198 203